{"data":{"norad_id":55361,"epoch":"2026-09-20T00:17:42.790848Z","epoch_age_seconds":138802,"freshness":"FRESH","line1":"1 55361U 23013AG  26263.01230082 -.00000894  00000+0 -22956-4 0  9994","line2":"2 55361  43.0048 271.1690 0001657 277.1573  82.9090 15.27567038201564","mean_motion":15.27567038,"eccentricity":0.0001657,"inclination_deg":43.0048,"raan_deg":271.169,"arg_perigee_deg":277.1573,"mean_anomaly_deg":82.909,"bstar":-2.2956e-5,"rev_number":20156,"period_min":94.267548603651,"perigee_km":481.9510042377,"apogee_km":484.22481417261,"semimajor_km":6861.2249092052,"source":"CELESTRAK","updated_at":"2026-09-21T09:00:33.207233Z"}}